When you browse on this site, cookies collect data to enhance your experience and personalize the content and advertising you see.
Visit our Privacy Policy to learn more. By continuing to use the site, you agree to this use of cookies and data.
  • In Hungary
  • List of Countries
  • For 7 days
  • Water Temperature
  • Weather Map
  • News
  • Weather Widgets
  • user-avatar
    Login

    Hourly Weather Dhanbad

    Today, 18 August, Sunday

    Time Temperature Precipitation Wind Pressure Humidity
    00:00 +27°C° 0 mm 0 mps 733 mmHg 77%
    01:00 +27°C° 0.1 mm 0 mps 732 mmHg 78%
    02:00 +27°C° 0.1 mm 0 mps 732 mmHg 78%
    03:00 +27°C° 0.1 mm 0 mps 732 mmHg 79%
    04:00 +26°C° 0.7 mm 0 mps 732 mmHg 80%
    05:00 +26°C° 0.7 mm 0 mps 732 mmHg 81%
    06:00 +28°C° 0 mm 1 mps 732 mmHg 86%
    07:00 +29°C° 0.8 mm 1 mps 733 mmHg 82%
    08:00 +30°C° 0.8 mm 2 mps 733 mmHg 77%
    09:00 +31°C° 0.8 mm 3 mps 733 mmHg 72%
    10:00 +33°C° 1.4 mm 3 mps 733 mmHg 71%
    11:00 +33°C° 1.4 mm 3 mps 732 mmHg 69%
    12:00 +34°C° 0 mm 3 mps 733 mmHg 63%
    13:00 +34°C° 0.9 mm 2 mps 733 mmHg 62%
    14:00 +34°C° 0.9 mm 2 mps 732 mmHg 62%
    15:00 +35°C° 0.9 mm 2 mps 732 mmHg 61%
    16:00 +34°C° 2.5 mm 2 mps 731 mmHg 66%
    17:00 +32°C° 2.5 mm 2 mps 731 mmHg 71%
    18:00 +31°C° 2.5 mm 3 mps 731 mmHg 76%
    19:00 +30°C° 0.2 mm 2 mps 731 mmHg 78%
    20:00 +30°C° 0.2 mm 1 mps 732 mmHg 80%
    21:00 +29°C° 0.2 mm 1 mps 733 mmHg 82%
    22:00 +29°C° 0.2 mm 1 mps 733 mmHg 83%
    23:00 +29°C° 0.2 mm 1 mps 733 mmHg 85%

    Tomorrow, 19 August, Monday

    Time Temperature Precipitation Wind Pressure Humidity
    00:00 +29°C° 0.2 mm 1 mps 733 mmHg 86%
    01:00 +28°C° 0.6 mm 2 mps 732 mmHg 86%
    02:00 +28°C° 0.6 mm 2 mps 732 mmHg 87%
    03:00 +28°C° 0.6 mm 2 mps 732 mmHg 87%
    04:00 +28°C° 1.1 mm 2 mps 732 mmHg 88%
    05:00 +27°C° 1.1 mm 2 mps 732 mmHg 89%
    06:00 +27°C° 1.1 mm 2 mps 733 mmHg 89%
    07:00 +28°C° 0.6 mm 2 mps 733 mmHg 86%
    08:00 +29°C° 0.6 mm 3 mps 733 mmHg 83%
    09:00 +30°C° 0.6 mm 3 mps 734 mmHg 80%
    10:00 +30°C° 0.9 mm 3 mps 734 mmHg 77%
    11:00 +31°C° 0.9 mm 3 mps 733 mmHg 75%
    12:00 +32°C° 0.9 mm 4 mps 733 mmHg 73%
    13:00 +33°C° 1.3 mm 4 mps 732 mmHg 71%
    14:00 +33°C° 1.3 mm 4 mps 732 mmHg 69%
    15:00 +34°C° 1.3 mm 4 mps 731 mmHg 67%
    16:00 +33°C° 1.5 mm 4 mps 731 mmHg 71%
    17:00 +31°C° 1.5 mm 3 mps 731 mmHg 75%
    18:00 +30°C° 1.5 mm 3 mps 730 mmHg 79%
    19:00 +30°C° 1.7 mm 4 mps 731 mmHg 80%
    20:00 +30°C° 1.7 mm 4 mps 732 mmHg 81%
    21:00 +29°C° 1.7 mm 5 mps 732 mmHg 81%
    22:00 +29°C° 0.2 mm 4 mps 732 mmHg 82%
    23:00 +29°C° 0.2 mm 4 mps 732 mmHg 83%

    Day after tomorrow, 20 August, Tuesday

    Time Temperature Precipitation Wind Pressure Humidity
    00:00 +29°C° 0.2 mm 4 mps 732 mmHg 84%
    01:00 +28°C° 0.2 mm 4 mps 732 mmHg 85%
    02:00 +28°C° 0.2 mm 4 mps 732 mmHg 85%
    03:00 +28°C° 0.2 mm 4 mps 732 mmHg 86%
    04:00 +28°C° 0.4 mm 3 mps 732 mmHg 87%
    05:00 +27°C° 0.4 mm 3 mps 732 mmHg 88%
    06:00 +27°C° 0.4 mm 3 mps 732 mmHg 89%
    07:00 +29°C° 0.1 mm 3 mps 732 mmHg 84%
    08:00 +30°C° 0.1 mm 3 mps 733 mmHg 78%
    09:00 +32°C° 0.1 mm 4 mps 733 mmHg 73%
    10:00 +33°C° 0.6 mm 4 mps 733 mmHg 69%
    11:00 +34°C° 0.6 mm 4 mps 732 mmHg 65%
    12:00 +35°C° 0.6 mm 5 mps 732 mmHg 61%
    13:00 +35°C° 1.1 mm 5 mps 731 mmHg 61%
    14:00 +35°C° 1.1 mm 5 mps 731 mmHg 61%
    15:00 +35°C° 1.1 mm 5 mps 730 mmHg 60%
    16:00 +35°C° 0.5 mm 4 mps 730 mmHg 64%
    17:00 +34°C° 0.5 mm 4 mps 730 mmHg 67%
    18:00 +33°C° 0.5 mm 4 mps 729 mmHg 70%
    19:00 +33°C° 0.1 mm 4 mps 730 mmHg 73%
    20:00 +32°C° 0.1 mm 4 mps 731 mmHg 76%
    21:00 +30°C° 0.1 mm 4 mps 731 mmHg 79%
    22:00 +30°C° 0 mm 4 mps 731 mmHg 81%
    23:00 +29°C° 0 mm 4 mps 731 mmHg 84%

    21 August, Wednesday

    Time Temperature Precipitation Wind Pressure Humidity
    00:00 +29°C° 0 mm 4 mps 731 mmHg 86%
    01:00 +29°C° 0 mm 4 mps 731 mmHg 87%
    02:00 +28°C° 0 mm 3 mps 731 mmHg 89%
    03:00 +28°C° 0 mm 3 mps 730 mmHg 90%
    04:00 +28°C° 0.8 mm 2 mps 731 mmHg 89%
    05:00 +28°C° 0.8 mm 2 mps 731 mmHg 88%
    06:00 +28°C° 0.8 mm 1 mps 731 mmHg 87%
    07:00 +29°C° 0 mm 2 mps 731 mmHg 82%
    08:00 +31°C° 0 mm 2 mps 731 mmHg 76%
    09:00 +33°C° 0 mm 3 mps 732 mmHg 71%
    10:00 +34°C° 0.1 mm 3 mps 731 mmHg 66%
    11:00 +35°C° 0.1 mm 4 mps 731 mmHg 61%
    12:00 +37°C° 0.1 mm 4 mps 731 mmHg 56%
    13:00 +37°C° 0.7 mm 4 mps 730 mmHg 56%
    14:00 +37°C° 0.7 mm 4 mps 730 mmHg 56%
    15:00 +37°C° 0.7 mm 4 mps 729 mmHg 57%
    16:00 +36°C° 0.5 mm 4 mps 729 mmHg 60%
    17:00 +35°C° 0.5 mm 3 mps 729 mmHg 63%
    18:00 +35°C° 0.5 mm 3 mps 729 mmHg 66%
    19:00 +34°C° 0 mm 4 mps 729 mmHg 70%
    20:00 +33°C° 0 mm 4 mps 730 mmHg 74%
    21:00 +32°C° 0 mm 4 mps 731 mmHg 79%
    22:00 +30°C° 0 mm 4 mps 731 mmHg 81%
    23:00 +30°C° 0 mm 4 mps 731 mmHg 83%

    22 August, Thursday

    Time Temperature Precipitation Wind Pressure Humidity
    00:00 +29°C° 0 mm 4 mps 731 mmHg 85%
    01:00 +29°C° 0 mm 3 mps 730 mmHg 87%
    02:00 +28°C° 0 mm 3 mps 730 mmHg 88%
    03:00 +28°C° 0 mm 3 mps 730 mmHg 89%
    04:00 +28°C° 0 mm 2 mps 730 mmHg 90%
    05:00 +28°C° 0 mm 2 mps 730 mmHg 91%
    06:00 +28°C° 0 mm 2 mps 730 mmHg 93%
    07:00 +29°C° 0 mm 2 mps 731 mmHg 87%
    08:00 +30°C° 0 mm 2 mps 731 mmHg 81%
    09:00 +31°C° 0 mm 3 mps 731 mmHg 75%
    10:00 +34°C° 0 mm 3 mps 731 mmHg 70%
    11:00 +35°C° 0 mm 3 mps 731 mmHg 64%
    12:00 +36°C° 0 mm 3 mps 730 mmHg 58%
    13:00 +36°C° 0.1 mm 4 mps 729 mmHg 58%
    14:00 +36°C° 0.1 mm 4 mps 729 mmHg 58%
    15:00 +37°C° 0.1 mm 4 mps 728 mmHg 58%
    16:00 +36°C° 0.6 mm 4 mps 728 mmHg 60%
    17:00 +35°C° 0.6 mm 4 mps 728 mmHg 63%
    18:00 +35°C° 0.6 mm 4 mps 728 mmHg 66%
    19:00 +34°C° 0.2 mm 4 mps 729 mmHg 69%
    20:00 +33°C° 0.2 mm 4 mps 730 mmHg 73%
    21:00 +32°C° 0.2 mm 5 mps 730 mmHg 77%
    22:00 +30°C° 0 mm 4 mps 731 mmHg 79%
    23:00 +30°C° 0 mm 4 mps 731 mmHg 82%

    23 August, Friday

    Time Temperature Precipitation Wind Pressure Humidity
    00:00 +29°C° 0 mm 4 mps 731 mmHg 84%
    01:00 +29°C° 0 mm 4 mps 730 mmHg 84%
    02:00 +29°C° 0 mm 3 mps 730 mmHg 85%
    03:00 +28°C° 0 mm 3 mps 730 mmHg 86%
    04:00 +28°C° 0 mm 3 mps 730 mmHg 87%
    05:00 +28°C° 0 mm 2 mps 730 mmHg 88%
    06:00 +28°C° 0 mm 2 mps 730 mmHg 88%
    07:00 +29°C° 0 mm 2 mps 731 mmHg 84%
    08:00 +30°C° 0 mm 3 mps 731 mmHg 80%
    09:00 +31°C° 0 mm 3 mps 732 mmHg 76%
    10:00 +33°C° 0.2 mm 3 mps 731 mmHg 72%
    11:00 +34°C° 0.2 mm 3 mps 731 mmHg 69%
    12:00 +35°C° 0.2 mm 3 mps 731 mmHg 66%
    13:00 +35°C° 1.1 mm 3 mps 731 mmHg 63%
    14:00 +35°C° 1.1 mm 3 mps 730 mmHg 61%
    15:00 +36°C° 1.1 mm 3 mps 730 mmHg 59%
    16:00 +35°C° 0.6 mm 4 mps 730 mmHg 63%
    17:00 +34°C° 0.6 mm 4 mps 730 mmHg 66%
    18:00 +33°C° 0.6 mm 4 mps 730 mmHg 70%
    19:00 +32°C° 0.2 mm 4 mps 731 mmHg 73%
    20:00 +32°C° 0.2 mm 4 mps 732 mmHg 75%
    21:00 +30°C° 0.2 mm 4 mps 732 mmHg 78%
    22:00 +30°C° 0.4 mm 4 mps 732 mmHg 79%
    23:00 +29°C° 0.4 mm 3 mps 733 mmHg 81%
    Show more